Time,TemperatureF,DewpointF,PressureIn,WindDirection,WindDirectionDegrees,WindSpeedMPH,WindSpeedGustMPH,Humidity,HourlyPrecipIn,Conditions,Clouds,dailyrainin,SoftwareType,DateUTC
2013-05-08 00:05:00,51.7,52.0,30.07,ESE,123,1.0,-999.0,99,-99.99,,,0.00,weatherlink.com 1.10,2013-05-08 04:05:00,
2013-05-08 00:20:00,51.6,51.0,30.07,SE,144,0.0,-999.0,99,-99.99,,,0.00,weatherlink.com 1.10,2013-05-08 04:20:00,
2013-05-08 00:35:00,52.0,52.0,30.08,South,174,0.0,-999.0,99,-99.99,,,0.00,weatherlink.com 1.10,2013-05-08 04:35:00,
2013-05-08 00:50:00,51.0,51.0,30.08,NNE,17,4.0,-999.0,99,-99.99,,,0.00,weatherlink.com 1.10,2013-05-08 04:50:00,
2013-05-08 01:05:00,51.7,52.0,30.07,South,184,0.0,-999.0,99,-99.99,,,0.00,weatherlink.com 1.10,2013-05-08 05:05:00,
2013-05-08 01:20:00,51.1,51.0,30.08,South,184,1.0,-999.0,99,-99.99,,,0.00,weatherlink.com 1.10,2013-05-08 05:20:00,
2013-05-08 01:35:00,51.1,51.0,30.07,South,184,0.0,-999.0,99,-99.99,,,0.00,weatherlink.com 1.10,2013-05-08 05:35:00,
2013-05-08 01:50:00,50.5,50.0,30.07,South,184,0.0,-999.0,99,-99.99,,,0.00,weatherlink.com 1.10,2013-05-08 05:50:00,
2013-05-08 02:05:00,51.0,51.0,30.07,South,184,3.0,-999.0,99,-99.99,,,0.00,weatherlink.com 1.10,2013-05-08 06:05:00,
2013-05-08 02:20:00,50.8,51.0,30.07,SE,143,3.0,-999.0,99,-99.99,,,0.01,weatherlink.com 1.10,2013-05-08 06:20:00,
2013-05-08 02:35:00,51.1,51.0,30.07,SSE,155,3.0,-999.0,99,-99.99,,,0.01,weatherlink.com 1.10,2013-05-08 06:35:00,
2013-05-08 02:50:00,51.3,51.0,30.07,SSW,203,3.0,-999.0,99,-99.99,,,0.01,weatherlink.com 1.10,2013-05-08 06:50:00,
2013-05-08 03:05:00,51.3,51.0,30.07,South,183,4.0,-999.0,99,-99.99,,,0.01,weatherlink.com 1.10,2013-05-08 07:05:00,
2013-05-08 03:20:00,51.6,51.0,30.07,SSE,161,4.0,-999.0,99,-99.99,,,0.01,weatherlink.com 1.10,2013-05-08 07:20:00,
2013-05-08 03:35:00,51.4,51.0,30.07,SSW,203,4.0,-999.0,99,-99.99,,,0.01,weatherlink.com 1.10,2013-05-08 07:35:00,
2013-05-08 03:50:00,51.4,51.0,30.07,SSW,193,2.0,-999.0,99,-99.99,,,0.01,weatherlink.com 1.10,2013-05-08 07:50:00,
2013-05-08 04:05:00,51.0,51.0,30.07,SSW,212,4.0,-999.0,99,-99.99,,,0.01,weatherlink.com 1.10,2013-05-08 08:05:00,
2013-05-08 04:20:00,51.4,51.0,30.07,SSW,193,5.0,-999.0,99,-99.99,,,0.01,weatherlink.com 1.10,2013-05-08 08:20:00,
2013-05-08 04:35:00,52.3,52.0,30.07,SSW,205,13.0,-999.0,99,-99.99,,,0.01,weatherlink.com 1.10,2013-05-08 08:35:00,
2013-05-08 04:50:00,52.8,53.0,30.07,SW,221,3.0,-999.0,99,-99.99,,,0.01,weatherlink.com 1.10,2013-05-08 08:50:00,
2013-05-08 05:05:00,52.5,52.0,30.07,SW,218,6.0,-999.0,98,-99.99,,,0.01,weatherlink.com 1.10,2013-05-08 09:05:00,
2013-05-08 05:20:00,52.5,52.0,30.08,SW,214,0.0,-999.0,98,-99.99,,,0.01,weatherlink.com 1.10,2013-05-08 09:20:00,
2013-05-08 05:35:00,52.2,52.0,30.08,SW,217,0.0,-999.0,98,-99.99,,,0.01,weatherlink.com 1.10,2013-05-08 09:35:00,
2013-05-08 05:50:00,52.5,52.0,30.09,SSW,198,3.0,-999.0,98,-99.99,,,0.01,weatherlink.com 1.10,2013-05-08 09:50:00,
2013-05-08 06:05:00,52.5,52.0,30.08,SSW,197,4.0,-999.0,98,-99.99,,,0.01,weatherlink.com 1.10,2013-05-08 10:05:00,
2013-05-08 06:20:00,52.6,52.0,30.09,South,191,3.0,-999.0,98,-99.99,,,0.01,weatherlink.com 1.10,2013-05-08 10:20:00,
2013-05-08 06:35:00,51.9,51.0,30.10,South,174,6.0,-999.0,98,-99.99,,,0.01,weatherlink.com 1.10,2013-05-08 10:35:00,
2013-05-08 06:50:00,52.2,52.0,30.11,SSW,198,4.0,-999.0,98,-99.99,,,0.01,weatherlink.com 1.10,2013-05-08 10:50:00,
2013-05-08 07:05:00,52.2,52.0,30.11,South,179,3.0,-999.0,98,-99.99,,,0.01,weatherlink.com 1.10,2013-05-08 11:05:00,
2013-05-08 07:20:00,52.8,52.0,30.12,South,173,2.0,-999.0,98,-99.99,,,0.01,weatherlink.com 1.10,2013-05-08 11:20:00,
2013-05-08 07:35:00,53.5,53.0,30.12,South,191,5.0,-999.0,97,-99.99,,,0.01,weatherlink.com 1.10,2013-05-08 11:35:00,
2013-05-08 07:50:00,54.1,53.0,30.12,South,175,3.0,-999.0,97,-99.99,,,0.01,weatherlink.com 1.10,2013-05-08 11:50:00,
2013-05-08 08:05:00,54.8,54.0,30.12,South,174,4.0,-999.0,96,-99.99,,,0.01,weatherlink.com 1.10,2013-05-08 12:05:00,
2013-05-08 08:20:00,54.2,53.0,30.14,SE,139,3.0,-999.0,95,-99.99,,,0.01,weatherlink.com 1.10,2013-05-08 12:20:00,
2013-05-08 08:35:00,55.1,54.0,30.14,SE,141,5.0,-999.0,95,-99.99,,,0.01,weatherlink.com 1.10,2013-05-08 12:35:00,
2013-05-08 08:50:00,54.8,53.0,30.15,SSW,199,7.0,-999.0,93,-99.99,,,0.01,weatherlink.com 1.10,2013-05-08 12:50:00,
2013-05-08 09:05:00,54.8,53.0,30.15,South,173,3.0,-999.0,92,-99.99,,,0.01,weatherlink.com 1.10,2013-05-08 13:05:00,
2013-05-08 09:20:00,54.5,53.0,30.16,SSW,211,3.0,-999.0,93,-99.99,,,0.01,weatherlink.com 1.10,2013-05-08 13:20:00,
2013-05-08 09:35:00,54.4,52.0,30.15,SSE,148,6.0,-999.0,92,-99.99,,,0.01,weatherlink.com 1.10,2013-05-08 13:35:00,
2013-05-08 09:50:00,54.4,53.0,30.15,SE,124,3.0,-999.0,93,-99.99,,,0.01,weatherlink.com 1.10,2013-05-08 13:50:00,
2013-05-08 10:05:00,54.5,53.0,30.15,SE,125,0.0,-999.0,94,-99.99,,,0.01,weatherlink.com 1.10,2013-05-08 14:05:00,
2013-05-08 10:20:00,54.8,53.0,30.15,SSE,151,0.0,-999.0,94,-99.99,,,0.01,weatherlink.com 1.10,2013-05-08 14:20:00,
2013-05-08 10:35:00,54.7,53.0,30.16,SSE,153,6.0,-999.0,94,-99.99,,,0.01,weatherlink.com 1.10,2013-05-08 14:35:00,
2013-05-08 10:50:00,54.8,53.0,30.15,ESE,117,3.0,-999.0,93,-99.99,,,0.01,weatherlink.com 1.10,2013-05-08 14:50:00,
2013-05-08 11:05:00,55.0,53.0,30.15,SE,126,5.0,-999.0,94,-99.99,,,0.01,weatherlink.com 1.10,2013-05-08 15:05:00,
2013-05-08 11:20:00,54.5,53.0,30.16,ESE,119,5.0,-999.0,94,-99.99,,,0.01,weatherlink.com 1.10,2013-05-08 15:20:00,
2013-05-08 11:35:00,54.8,53.0,30.16,SE,132,5.0,-999.0,93,-99.99,,,0.01,weatherlink.com 1.10,2013-05-08 15:35:00,
2013-05-08 11:50:00,53.9,53.0,30.16,ESE,116,3.0,-999.0,95,-99.99,,,0.01,weatherlink.com 1.10,2013-05-08 15:50:00,
2013-05-08 12:05:00,54.2,53.0,30.16,ESE,113,0.0,-999.0,95,-99.99,,,0.01,weatherlink.com 1.10,2013-05-08 16:05:00,
2013-05-08 12:20:00,53.8,52.0,30.16,SE,131,4.0,-999.0,95,-99.99,,,0.01,weatherlink.com 1.10,2013-05-08 16:20:00,
2013-05-08 12:35:00,53.8,52.0,30.15,SE,126,0.0,-999.0,95,-99.99,,,0.01,weatherlink.com 1.10,2013-05-08 16:35:00,
2013-05-08 12:50:00,54.4,53.0,30.15,ESE,122,2.0,-999.0,95,-99.99,,,0.01,weatherlink.com 1.10,2013-05-08 16:50:00,
2013-05-08 13:05:00,54.8,53.0,30.15,ESE,116,2.0,-999.0,95,-99.99,,,0.01,weatherlink.com 1.10,2013-05-08 17:05:00,
2013-05-08 13:20:00,55.0,53.0,30.15,SE,125,1.0,-999.0,94,-99.99,,,0.01,weatherlink.com 1.10,2013-05-08 17:20:00,
2013-05-08 13:35:00,56.0,54.0,30.15,SSE,148,0.0,-999.0,93,-99.99,,,0.01,weatherlink.com 1.10,2013-05-08 17:35:00,
2013-05-08 13:50:00,56.3,54.0,30.15,SE,134,6.0,-999.0,91,-99.99,,,0.01,weatherlink.com 1.10,2013-05-08 17:50:00,
2013-05-08 14:05:00,55.9,53.0,30.15,ESE,122,6.0,-999.0,90,-99.99,,,0.01,weatherlink.com 1.10,2013-05-08 18:05:00,
2013-05-08 14:20:00,56.7,54.0,30.14,ESE,103,2.0,-999.0,91,-99.99,,,0.01,weatherlink.com 1.10,2013-05-08 18:20:00,
2013-05-08 14:35:00,57.2,54.0,30.14,SE,143,3.0,-999.0,89,-99.99,,,0.01,weatherlink.com 1.10,2013-05-08 18:35:00,
2013-05-08 14:50:00,57.6,54.0,30.13,ESE,115,0.0,-999.0,89,-99.99,,,0.01,weatherlink.com 1.10,2013-05-08 18:50:00,
2013-05-08 15:05:00,57.6,54.0,30.12,SE,124,0.0,-999.0,87,-99.99,,,0.01,weatherlink.com 1.10,2013-05-08 19:05:00,
2013-05-08 15:20:00,58.6,55.0,30.12,ENE,78,1.0,-999.0,87,-99.99,,,0.01,weatherlink.com 1.10,2013-05-08 19:20:00,
2013-05-08 15:35:00,58.6,55.0,30.11,ENE,65,0.0,-999.0,86,-99.99,,,0.01,weatherlink.com 1.10,2013-05-08 19:35:00,
2013-05-08 15:50:00,59.0,55.0,30.11,East,89,0.0,-999.0,86,-99.99,,,0.01,weatherlink.com 1.10,2013-05-08 19:50:00,
2013-05-08 16:05:00,58.7,55.0,30.11,SE,130,1.0,-999.0,86,-99.99,,,0.01,weatherlink.com 1.10,2013-05-08 20:05:00,
2013-05-08 16:20:00,58.4,54.0,30.10,SE,126,7.0,-999.0,86,-99.99,,,0.01,weatherlink.com 1.10,2013-05-08 20:20:00,
2013-05-08 16:35:00,58.6,55.0,30.11,SSE,148,0.0,-999.0,87,-99.99,,,0.01,weatherlink.com 1.10,2013-05-08 20:35:00,
2013-05-08 16:50:00,58.3,55.0,30.10,SSE,156,0.0,-999.0,87,-99.99,,,0.01,weatherlink.com 1.10,2013-05-08 20:50:00,
2013-05-08 17:05:00,57.0,54.0,30.11,ESE,123,2.0,-999.0,88,-99.99,,,0.01,weatherlink.com 1.10,2013-05-08 21:05:00,
2013-05-08 17:20:00,56.6,54.0,30.11,SE,130,1.0,-999.0,90,-99.99,,,0.01,weatherlink.com 1.10,2013-05-08 21:20:00,
2013-05-08 17:35:00,56.0,54.0,30.10,SE,132,3.0,-999.0,91,-99.99,,,0.01,weatherlink.com 1.10,2013-05-08 21:35:00,
2013-05-08 17:50:00,56.2,54.0,30.09,NE,53,0.0,-999.0,92,-99.99,,,0.01,weatherlink.com 1.10,2013-05-08 21:50:00,
2013-05-08 18:05:00,55.9,53.0,30.09,ESE,111,2.0,-999.0,91,-99.99,,,0.01,weatherlink.com 1.10,2013-05-08 22:05:00,
2013-05-08 18:20:00,56.0,54.0,30.09,ENE,60,0.0,-999.0,91,-99.99,,,0.01,weatherlink.com 1.10,2013-05-08 22:20:00,
2013-05-08 18:35:00,56.2,54.0,30.09,ESE,103,0.0,-999.0,91,-99.99,,,0.01,weatherlink.com 1.10,2013-05-08 22:35:00,
2013-05-08 18:50:00,55.7,53.0,30.08,NE,44,0.0,-999.0,91,-99.99,,,0.01,weatherlink.com 1.10,2013-05-08 22:50:00,
2013-05-08 19:05:00,55.1,53.0,30.08,NNE,21,0.0,-999.0,92,-99.99,,,0.01,weatherlink.com 1.10,2013-05-08 23:05:00,
2013-05-08 19:20:00,55.0,53.0,30.07,NNE,19,2.0,-999.0,93,-99.99,,,0.01,weatherlink.com 1.10,2013-05-08 23:20:00,
2013-05-08 19:35:00,54.7,53.0,30.07,NNE,27,0.0,-999.0,94,-99.99,,,0.01,weatherlink.com 1.10,2013-05-08 23:35:00,
2013-05-08 19:50:00,54.5,53.0,30.07,NE,34,2.0,-999.0,94,-99.99,,,0.01,weatherlink.com 1.10,2013-05-08 23:50:00,
2013-05-08 20:05:00,54.7,53.0,30.07,NE,41,3.0,-999.0,95,-99.99,,,0.01,weatherlink.com 1.10,2013-05-09 00:05:00,
2013-05-08 20:20:00,54.7,53.0,30.07,NE,44,0.0,-999.0,95,-99.99,,,0.01,weatherlink.com 1.10,2013-05-09 00:20:00,
2013-05-08 20:35:00,54.7,53.0,30.07,NNE,32,0.0,-999.0,95,-99.99,,,0.01,weatherlink.com 1.10,2013-05-09 00:35:00,
2013-05-08 20:50:00,54.4,53.0,30.08,NE,35,0.0,-999.0,95,-99.99,,,0.01,weatherlink.com 1.10,2013-05-09 00:50:00,
2013-05-08 21:05:00,54.2,53.0,30.07,NE,44,3.0,-999.0,96,-99.99,,,0.01,weatherlink.com 1.10,2013-05-09 01:05:00,
2013-05-08 21:20:00,54.5,53.0,30.07,ESE,117,0.0,-999.0,96,-99.99,,,0.01,weatherlink.com 1.10,2013-05-09 01:20:00,
2013-05-08 21:35:00,54.4,53.0,30.07,NE,41,0.0,-999.0,96,-99.99,,,0.01,weatherlink.com 1.10,2013-05-09 01:35:00,
2013-05-08 21:50:00,54.1,53.0,30.07,NNE,25,3.0,-999.0,96,-99.99,,,0.02,weatherlink.com 1.10,2013-05-09 01:50:00,
2013-05-08 22:05:00,53.8,53.0,30.07,NNE,26,4.0,-999.0,97,-99.99,,,0.02,weatherlink.com 1.10,2013-05-09 02:05:00,
2013-05-08 22:20:00,53.8,53.0,30.06,NNE,23,0.0,-999.0,97,-99.99,,,0.02,weatherlink.com 1.10,2013-05-09 02:20:00,
2013-05-08 22:35:00,53.6,53.0,30.06,North,6,4.0,-999.0,97,-99.99,,,0.02,weatherlink.com 1.10,2013-05-09 02:35:00,
2013-05-08 22:50:00,53.5,53.0,30.06,NE,45,1.0,-999.0,97,-99.99,,,0.02,weatherlink.com 1.10,2013-05-09 02:50:00,
2013-05-08 23:05:00,53.1,52.0,30.05,NE,43,4.0,-999.0,97,-99.99,,,0.02,weatherlink.com 1.10,2013-05-09 03:05:00,
2013-05-08 23:20:00,52.9,52.0,30.05,North,5,3.0,-999.0,97,-99.99,,,0.00,weatherlink.com 1.10,2013-05-09 03:20:00,
2013-05-08 23:35:00,52.9,52.0,30.05,NE,44,2.0,-999.0,97,-99.99,,,0.00,weatherlink.com 1.10,2013-05-09 03:35:00,
2013-05-08 23:50:00,52.8,52.0,30.03,NNE,21,6.0,-999.0,97,-99.99,,,0.00,weatherlink.com 1.10,2013-05-09 03:50:00,